#timestamp,LO_Frequency,Hit,StdDev 
1550991615.3,286047000.3,N
1550991635.1,286046998.6,N
1550991655.9,286046999.5,N
1550991675.7,286046999.3,N
1550991695.6,286047001.0,N
1550991715.4,286047002.8,N
1550991735.2,286047001.1,N
1550991755.1,286046998.4,N
1550991756.0,286046998.4,N
1550991775.8,286046998.8,N
1550991795.6,286046999.4,N
1550991815.5,286047000.4,N
1550991835.3,286047002.8,N
1550991855.2,286047000.0,N
1550991875.9,286047002.8,N
1550991895.7,286047000.3,N
1550991915.6,286047002.8,N
1550991935.4,286047000.3,N
1550991955.3,286047000.0,N
1550991975.1,286047001.3,N
1550991976.0,286047001.3,N
1550991995.8,286047005.5,Y
1550992015.7,286047003.2,P
1550992035.5,286047002.0,N
1550992055.4,286047003.9,P
1550992075.2,286047004.8,Y
1550992095.0,286047005.7,P
1550992095.9,286047005.7,P
1550992115.8,286047004.1,N
1550992135.6,286047001.9,N
1550992155.4,286046999.7,N
1550992175.3,286047000.5,N
1550992195.1,286046998.1,N
1550992215.9,286047000.2,N
1550992235.7,286046998.7,N
1550992255.5,286047000.5,N
1550992275.4,286047001.9,N
1550992295.2,286047004.2,N
1550992315.0,286047005.9,N
1550992316.0,286047005.9,N
1550992335.8,286047004.9,N
1550992355.6,286047004.8,N
1550992375.5,286047003.8,N
1550992395.3,286047004.6,N
1550992415.1,286047004.8,N
1550992435.9,286047003.7,N
1550992455.7,286047004.2,N
1550992475.6,286047003.2,N
1550992495.4,286047005.3,N
1550992515.2,286047005.3,N
1550992535.1,286047007.6,Y
1550992536.0,286047007.6,P
1550992555.8,286047007.5,P
1550992575.7,286047003.3,N
1550992595.5,286047003.5,N
1550992615.3,286047000.1,N
1550992635.2,286046998.8,N
1550992655.9,286047002.1,N
1550992675.7,286047004.3,N
1550992695.6,286047001.9,N
1550992715.4,286047005.2,N
1550992735.3,286047004.8,N
1550992755.1,286047001.4,N
1550992756.0,286047001.4,N
1550992775.8,286047004.3,N
1550992795.7,286047004.4,N
1550992815.5,286047004.4,N
1550992835.3,286047003.1,N
1550992855.2,286047002.9,N
1550992875.0,286047007.0,Y
1550992875.9,286047007.0,P
1550992895.8,286047004.3,N
1550992915.6,286047000.2,N
1550992935.4,286047000.9,N
1550992955.3,286046998.9,N
1550992975.1,286046999.4,N
1550992995.9,286047001.2,N
1550993015.7,286046998.3,N
1550993035.5,286047000.9,N
1550993055.4,286046998.8,N
1550993075.2,286046996.7,N
1550993095.0,286046999.3,N
1550993095.9,286046999.3,N
1550993115.8,286047000.8,N
1550993135.6,286047002.7,N
1550993155.5,286046996.5,N
1550993175.3,286046990.2,Y
1550993195.1,286046988.8,P
1550993215.9,286046986.6,N
1550993235.7,286046981.5,P
1550993255.6,286046978.6,Y
1550993275.4,286046986.4,P
1550993295.2,286046985.2,P
1550993315.1,286046981.2,P
1550993316.0,286046981.2,Y
1550993335.8,286046993.4,P
1550993355.6,286046992.1,N
1550993375.5,286046994.3,N
1550993395.3,286046994.8,N
1550993415.2,286046992.5,N
1550993435.9,286046992.1,N
1550993455.7,286046992.5,N
1550993475.6,286046993.2,N
1550993495.4,286046990.3,Y
1550993515.3,286046999.6,P
1550993535.1,286046998.9,N
1550993536.0,286046998.9,N
1550993555.8,286046997.4,N
1550993575.7,286046995.0,N
1550993595.5,286046996.1,N
1550993615.3,286046994.1,N
1550993635.2,286046993.6,N
1550993655.0,286046996.0,N
1550993655.9,286046996.0,N
1550993675.8,286046995.6,N
1550993695.6,286046993.5,Y
1550993715.4,286046996.9,P
1550993735.3,286046997.4,P
1550993755.1,286046997.6,P
1550993775.9,286046995.6,Y
1550993795.7,286046998.2,P
1550993815.5,286046998.1,P
1550993835.4,286047000.3,N
1550993855.2,286047000.0,N
1550993875.0,286047000.8,N
1550993875.9,286047000.8,N
1550993895.8,286046998.8,N
1550993915.6,286046996.9,N
1550993935.5,286046998.2,N
1550993955.3,286047000.3,N
1550993975.1,286047000.9,N
1550993995.9,286046998.2,N
1550994015.7,286047000.3,N
1550994035.5,286047000.0,N
1550994055.4,286047000.0,N
1550994075.2,286047002.7,N
1550994095.1,286047000.4,N
1550994096.0,286047000.4,N
1550994115.8,286047000.0,N
1550994135.6,286047000.4,N
1550994155.5,286047000.6,N
1550994175.3,286047000.4,N
1550994195.1,286047001.0,N
1550994215.9,286047000.0,N
1550994235.7,286047002.0,N
1550994255.6,286047002.4,N
1550994275.4,286047003.6,N
1550994295.2,286047003.3,N
1550994315.1,286047004.7,N
1550994316.0,286047004.7,N
1550994335.8,286047006.2,Y
1550994355.7,286047007.3,P
1550994375.5,286047004.5,N
1550994395.3,286047006.1,N
1550994415.2,286047008.4,Y
1550994435.0,286047001.3,P
1550994435.9,286047001.3,N
1550994455.7,286046999.8,N
1550994475.6,286047001.5,N
1550994495.4,286047002.6,N
1550994515.3,286047003.7,N
1550994535.1,286047003.7,N
1550994536.0,286047003.7,N
1550994555.8,286047006.0,Y
1550994575.7,286047000.6,P
1550994595.5,286047004.1,P
1550994615.4,286047003.2,N
1550994635.2,286047002.0,N
1550994655.0,286047001.3,N
1550994655.9,286047001.3,N
1550994675.8,286047003.4,N
1550994695.6,286047006.0,Y
1550994715.4,286047002.3,P
1550994735.3,286047001.7,P
1550994755.1,286046999.9,N
1550994775.9,286047001.0,N
1550994795.7,286047000.9,N
1550994815.5,286047003.9,Y
1550994835.4,286047002.8,P
1550994855.2,286047000.0,N
1550994875.1,286047000.9,N
1550994876.0,286047000.9,N
1550994895.8,286047000.9,N
1550994915.6,286047001.5,N
1550994935.5,286047001.9,N
1550994955.3,286047001.3,N
1550994975.1,286047004.4,Y
1550994995.9,286047003.9,P
1550995015.7,286047000.2,N
1550995035.6,286047002.4,N
1550995055.4,286047007.6,Y
1550995075.2,286047003.2,P
1550995095.1,286047001.7,N
1550995096.0,286047001.7,N
1550995115.8,286047006.0,Y
1550995135.7,286047004.0,P
1550995155.5,286047001.7,N
1550995175.3,286047003.5,P
1550995195.2,286047005.8,Y
